Canby, MN

11:15 AM CST on December 04, 2016 (GMT -0600)
Canby

Weather History for KCNB - April, 2013

Change the Weather History Date:

Wednesday, April 24, 2013

  Actual Average (KMML) Record (KMML)
Temperature  
Mean Temperature 34 °F -  
Max Temperature 40 °F 62 °F 80 °F (1990)
Min Temperature 28 °F 37 °F 19 °F (1967)
Degree Days  
Heating Degree Days 31    
Moisture  
Dew Point 27 °F    
Average Humidity 75    
Maximum Humidity 92    
Minimum Humidity 57    
Precipitation  
Precipitation 0.00 in - - ()
Sea Level Pressure  
Sea Level Pressure 30.01 in    
Wind  
Wind Speed 13 mph (WSW)    
Max Wind Speed 20 mph    
Max Gust Speed 31 mph    
Visibility 10 miles    
Events Rain    
Averages and records for this station are not official NWS values.
T = Trace of Precipitation, MM = Missing Value Source: NWS Daily Summary

Daily Weather History Graph

Daily Weather History Graph

Search for Another Location

Airport or City:

Trip Planner

Search our weather history database for the weather conditions in past years. The results will help you decide how hot, cold, wet, or windy it might be!

Date:

Astronomy

Apr. 24, 2013 Rise Set
Actual Time 6:25 AM CDT 8:21 PM CDT
Civil Twilight 5:53 AM CDT 8:53 PM CDT
Nautical Twilight 5:15 AM CDT 9:31 PM CDT
Astronomical Twilight 4:33 AM CDT 10:14 PM CDT
Moon 7:25 PM CDT (4/24) 5:32 AM CDT (4/24)
Length of Visible Light 14h 59m
Length of Day
13h 56m
Waxing Gibbous, 98% of the Moon is Illuminated
Apr 24
Waxing Gibbous
Apr 25
Full
May 2
Last Quarter
May 9
New
May 17
First Quarter

Hourly Weather History & Observations

Time (CDT) Temp. Windchill Dew Point Humidity Pressure Visibility Wind Dir Wind Speed Gust Speed Precip Events Conditions
12:17 AM 30.2 °F 20.2 °F 24.3 °F 79% 30.07 in 10.0 mi WSW 12.7 mph - N/A   Clear
12:37 AM 30.9 °F 20.7 °F 24.4 °F 77% 30.07 in 10.0 mi WSW 13.8 mph - N/A   Clear
12:57 AM 30.7 °F 21.4 °F 23.9 °F 76% 30.06 in 10.0 mi WSW 11.5 mph - N/A   Clear
1:17 AM 31.1 °F 21.4 °F 23.9 °F 75% 30.06 in 10.0 mi WSW 12.7 mph - N/A   Clear
1:36 AM 32.0 °F 22.5 °F 23.9 °F 72% 30.05 in 10.0 mi WSW 12.7 mph - N/A   Clear
1:57 AM 32.0 °F 21.6 °F 23.9 °F 72% 30.05 in 10.0 mi WSW 15.0 mph - N/A   Clear
2:17 AM 31.8 °F 21.4 °F 23.9 °F 73% 30.05 in 10.0 mi WSW 15.0 mph 19.6 mph N/A   Clear
2:37 AM 31.8 °F 22.3 °F 23.7 °F 72% 30.04 in 10.0 mi WSW 12.7 mph - N/A   Clear
2:57 AM 31.8 °F 22.3 °F 23.7 °F 72% 30.04 in 10.0 mi WSW 12.7 mph - N/A   Clear
3:17 AM 30.6 °F 20.7 °F 23.4 °F 75% 30.04 in 10.0 mi WSW 12.7 mph 19.6 mph N/A   Clear
3:36 AM 29.8 °F 19.8 °F 23.2 °F 76% 30.04 in 10.0 mi WSW 12.7 mph - N/A   Clear
3:56 AM 29.5 °F 21.1 °F 23.0 °F 77% 30.03 in 10.0 mi WSW 9.2 mph - N/A   Clear
4:17 AM 30.7 °F 20.9 °F 23.4 °F 74% 30.03 in 10.0 mi WSW 12.7 mph - N/A   Clear
4:37 AM 30.0 °F 20.0 °F 23.0 °F 75% 30.03 in 10.0 mi WSW 12.7 mph - N/A   Clear
4:57 AM 29.7 °F 18.6 °F 23.2 °F 77% 30.03 in 10.0 mi WSW 15.0 mph - N/A   Clear
5:16 AM 29.8 °F 18.9 °F 23.0 °F 76% 30.03 in 10.0 mi WSW 15.0 mph 19.6 mph N/A   Clear
5:37 AM 30.2 °F 18.5 °F 23.0 °F 75% 30.02 in 10.0 mi WSW 17.3 mph - N/A   Clear
5:56 AM 30.0 °F 18.7 °F 23.0 °F 75% 30.01 in 10.0 mi WSW 16.1 mph - N/A   Clear
6:17 AM 30.2 °F 18.1 °F 23.0 °F 75% 30.01 in 10.0 mi WSW 18.4 mph 23.0 mph N/A   Clear
6:36 AM 30.7 °F 18.8 °F 23.0 °F 73% 30.00 in 10.0 mi WSW 18.4 mph 24.2 mph N/A   Clear
6:57 AM 30.6 °F 19.4 °F 23.0 °F 74% 30.00 in 10.0 mi WSW 16.1 mph - N/A   Clear
7:17 AM 30.9 °F 19.4 °F 23.0 °F 72% 30.00 in 10.0 mi WSW 17.3 mph - N/A   Clear
7:37 AM 31.1 °F 18.9 °F 23.0 °F 72% 30.00 in 10.0 mi WSW 19.6 mph 23.0 mph N/A   Clear
7:57 AM 32.0 °F 21.2 °F 23.5 °F 71% 30.00 in 10.0 mi WSW 16.1 mph - N/A   Clear
8:17 AM 32.0 °F 21.2 °F 23.2 °F 70% 30.00 in 10.0 mi WSW 16.1 mph 23.0 mph N/A   Clear
8:37 AM 33.3 °F 23.2 °F 23.5 °F 68% 29.99 in 10.0 mi SW 15.0 mph - N/A   Clear
8:57 AM 33.1 °F 23.4 °F 23.5 °F 68% 29.99 in 10.0 mi SW 13.8 mph - N/A   Clear
9:17 AM 32.9 °F 23.2 °F 22.8 °F 66% 29.98 in 10.0 mi SW 13.8 mph - N/A   Clear
9:37 AM 33.8 °F 23.9 °F 23.0 °F 65% 29.97 in 10.0 mi SW 15.0 mph - N/A   Scattered Clouds
9:56 AM 34.7 °F 24.7 °F 23.9 °F 65% 29.97 in 10.0 mi SW 16.1 mph 24.2 mph N/A   Scattered Clouds
10:17 AM 35.1 °F 25.9 °F 23.9 °F 64% 29.97 in 10.0 mi SW 13.8 mph 20.7 mph N/A   Scattered Clouds
10:37 AM 36.1 °F 27.3 °F 24.3 °F 62% 29.96 in 10.0 mi SW 13.8 mph 25.3 mph N/A   Scattered Clouds
10:56 AM 36.9 °F 28.2 °F 24.6 °F 61% 29.96 in 10.0 mi SW 13.8 mph 20.7 mph N/A   Clear
11:17 AM 37.8 °F 29.4 °F 25.0 °F 60% 29.96 in 10.0 mi SW 13.8 mph 19.6 mph N/A   Clear
11:37 AM 38.3 °F 30.9 °F 24.8 °F 58% 29.96 in 10.0 mi WSW 11.5 mph - N/A   Clear
11:56 AM 39.2 °F 31.2 °F 25.2 °F 57% 29.96 in 10.0 mi SW 13.8 mph 18.4 mph N/A   Clear
12:17 PM 39.6 °F 31.3 °F 25.9 °F 58% 29.96 in 10.0 mi WSW 15.0 mph 20.7 mph N/A   Clear
12:37 PM 39.4 °F 31.4 °F 27.1 °F 62% 29.96 in 10.0 mi WSW 13.8 mph - N/A   Scattered Clouds
12:57 PM 39.6 °F 31.3 °F 28.2 °F 64% 29.95 in 10.0 mi WSW 15.0 mph 19.6 mph N/A   Scattered Clouds
1:16 PM 39.2 °F 31.2 °F 28.9 °F 67% 29.95 in 10.0 mi WSW 13.8 mph - N/A   Mostly Cloudy
1:37 PM 39.9 °F 32.5 °F 29.3 °F 66% 29.95 in 10.0 mi WSW 12.7 mph 17.3 mph N/A   Overcast
1:57 PM 39.4 °F 31.8 °F 30.0 °F 69% 29.95 in 10.0 mi WSW 12.7 mph - N/A   Overcast
2:16 PM 38.7 °F 31.4 °F 30.6 °F 73% 29.96 in 10.0 mi WSW 11.5 mph - N/A   Overcast
2:37 PM 37.4 °F 27.2 °F 32.2 °F 81% 29.98 in 5.0 mi West 19.6 mph 27.6 mph N/A Rain Light Rain
2:56 PM 35.6 °F 26.2 °F 33.3 °F 91% 29.98 in 5.0 mi West 15.0 mph - N/A Rain Light Rain
3:17 PM 36.0 °F 29.0 °F 33.4 °F 91% 29.98 in 5.0 mi West 9.2 mph - N/A Rain Light Rain
3:37 PM 35.8 °F 27.8 °F 33.8 °F 92% 29.98 in 4.0 mi West 11.5 mph - N/A Rain Light Rain
3:56 PM 36.1 °F 28.7 °F 34.0 °F 92% 29.98 in 5.0 mi WNW 10.4 mph - N/A Rain Light Rain
4:17 PM 37.4 °F - 34.3 °F 89% 29.97 in 10.0 mi Calm Calm - N/A   Scattered Clouds
4:37 PM 38.3 °F 31.9 °F 33.8 °F 84% 29.97 in 10.0 mi West 9.2 mph - N/A   Mostly Cloudy
4:57 PM 38.8 °F 32.6 °F 33.8 °F 82% 29.96 in 10.0 mi West 9.2 mph - N/A   Scattered Clouds
5:16 PM 39.2 °F 32.5 °F 33.3 °F 79% 29.97 in 10.0 mi West 10.4 mph - N/A   Clear
5:37 PM 39.2 °F 35.0 °F 33.3 °F 79% 29.97 in 10.0 mi West 5.8 mph - N/A   Clear
5:57 PM 39.6 °F 34.0 °F 33.1 °F 78% 29.97 in 10.0 mi West 8.1 mph - N/A   Scattered Clouds
6:17 PM 38.8 °F 30.8 °F 32.4 °F 78% 29.98 in 10.0 mi West 13.8 mph - N/A   Mostly Cloudy
6:36 PM 37.6 °F 27.7 °F 32.7 °F 83% 29.99 in 10.0 mi West 18.4 mph 24.2 mph N/A   Light Drizzle
6:57 PM 36.0 °F 27.5 °F 33.3 °F 90% 29.99 in 7.0 mi West 12.7 mph - N/A Rain Light Rain
7:17 PM 35.8 °F 26.9 °F 33.4 °F 91% 29.99 in 7.0 mi West 13.8 mph 17.3 mph N/A Rain Light Rain
7:37 PM 34.9 °F 24.6 °F 32.0 °F 89% 30.00 in 10.0 mi NW 17.3 mph 31.1 mph N/A   Overcast
7:56 PM 35.4 °F 25.3 °F 31.1 °F 84% 30.01 in 10.0 mi NW 17.3 mph 31.1 mph N/A   Mostly Cloudy
8:17 PM 34.7 °F 24.7 °F 30.2 °F 84% 30.03 in 10.0 mi WNW 16.1 mph 21.9 mph N/A   Scattered Clouds
8:36 PM 33.8 °F 23.5 °F 30.2 °F 87% 30.03 in 10.0 mi NW 16.1 mph 21.9 mph N/A   Clear
8:57 PM 33.6 °F 22.2 °F 29.5 °F 85% 30.04 in 10.0 mi WNW 19.6 mph 23.0 mph N/A   Clear
9:57 PM 32.0 °F 23.6 °F 25.2 °F 76% 30.07 in 10.0 mi NW 10.4 mph - N/A   Clear
10:17 PM 31.8 °F 23.9 °F 25.0 °F 76% 30.09 in 10.0 mi WNW 9.2 mph - N/A   Clear
10:36 PM 31.1 °F 22.4 °F 24.3 °F 76% 30.09 in 10.0 mi WNW 10.4 mph - N/A   Clear
10:57 PM 30.7 °F 21.4 °F 23.5 °F 75% 30.09 in 10.0 mi WNW 11.5 mph - N/A   Clear
11:17 PM 30.2 °F 20.2 °F 23.0 °F 75% 30.10 in 10.0 mi WNW 12.7 mph - N/A   Clear
11:36 PM 29.3 °F 20.2 °F 22.8 °F 77% 30.10 in 10.0 mi WNW 10.4 mph - N/A   Clear
11:57 PM 28.8 °F 19.0 °F 22.6 °F 78% 30.11 in 10.0 mi West 11.5 mph - N/A   Clear